Regional Weather Roundup
Issued by NWS

Home | Current Version | Previous Version | Graphics & Text | Print | Product List | Glossary On
Versions: 1 2 3 4 5 6 7 8 9 10 11 12 13 14 15 16 17 18 19 20 21 22 23 24 25 26 27
000
ASUS45 KBOU 241707
RWRCO

WEATHER ROUNDUP FOR COLORADO
NATIONAL WEATHER SERVICE DENVER/BOULDER CO
1100 AM MDT FRI OCT 24 2014

NOTE: "FAIR" INDICATES FEW OR NO CLOUDS BELOW 12000 FEET WITH NO
SIGNIFICANT WEATHER AND/OR OBSTRUCTIONS TO VISIBILITY.

COZ001>005-013-030-031-241800-
...NORTHWEST COLORADO...

CITY           SKY/WX    TMP DP  RH WIND       PRES   REMARKS
CRAIG          SUNNY     61  32  33 NE10      30.33F
HAYDEN         SUNNY     55  32  41 SE7       30.35S
MEEKER         SUNNY     62  35  36 CALM      30.34F
MOUNT WERNER   NOT AVBL
STEAMBOAT SPGS SUNNY     49  34  56 CALM      30.36F
WALDEN         MOSUNNY   55  23  28 S24G31    30.38S
$$

COZ006>008-011-241800-
...WEST CENTRAL VALLEYS...

CITY           SKY/WX    TMP DP  RH WIND       PRES   REMARKS
GRAND JUNCTION SUNNY     62  36  37 SE7       30.32S
MONTROSE       SUNNY     61  29  29 CALM      30.37F
EAGLE          MOSUNNY   46  36  66 CALM      30.42F
RIFLE          SUNNY     53  35  50 CALM      30.36F
DELTA          SUNNY     60  35  38 E5        30.35F
NUCLA          SUNNY     57  30  35 CALM      30.41F
$$

COZ017>023-064>068-241800-
...SOUTHWEST COLORADO...

CITY           SKY/WX    TMP DP  RH WIND       PRES   REMARKS
DURANGO        SUNNY     57  37  47 NE3       30.41S
CORTEZ         SUNNY     62  32  32 CALM      30.38S
PAGOSA SPRINGS SUNNY     57  32  38 CALM      30.46S
TELLURIDE      SUNNY     56  17  21 CALM      30.54S
WOLF CREEK PAS SUNNY     46  18  31 S9          N/A
$$

COZ009-010-012-014-032>034-037-058>063-241800-
...CENTRAL COLORADO...

CITY           SKY/WX    TMP DP  RH WIND       PRES   REMARKS
ASPEN          SUNNY     56  24  29 N3        30.42F
BUENA VISTA    SUNNY     59  19  21 N6        30.41F
COPPER MTN     MOSUNNY   46   9  21 SW9       30.66R
BERTHOUD PASS  FAIR      37  34  87 NW23G30   30.64F
COTTONWOOD PAS SUNNY     59   9  13 S5G18     30.51S
GUNNISON       SUNNY     43  28  56 CALM      30.53F
KREMMLING      SUNNY     50  32  50 CALM        N/A
LEADVILLE      MOSUNNY   48  22  35 VRB3      30.52S
MONARCH PASS   SUNNY     41  16  36 W29       30.74R
SALIDA         SUNNY     58  27  29 NE6       30.46F
SUNLIGHT       SUNNY     52  25  35 CALM      30.60S
WILKERSON PASS NOT AVBL
$$

COZ069>075-241800-
...SAN LUIS VALLEY/SANGRE DE CRISTO MOUNTAINS...

CITY           SKY/WX    TMP DP  RH WIND       PRES   REMARKS
ALAMOSA        SUNNY     52  31  44 S3        30.44F
LA VETA PASS   SUNNY     54  32  43 S6        30.54S
SAGUACHE       SUNNY     55  32  41 SE10      30.45S
$$

COZ035-036-038>040-241800-
...NORTHERN COLORADO FRONT RANGE...

CITY           SKY/WX    TMP DP  RH WIND       PRES   REMARKS
DENVER INTL AP CLOUDY    74  25  16 SW10      30.20S
DMNS CITY PARK   N/A     68  29  24 S5G12     30.20S
AURORA         PTSUNNY   70  27  20 SW10      30.22F
FRONT RANGE AP PTSUNNY   73  27  17 W8        30.22S
ERIE MUNI ARPT CLOUDY    72  26  18 NW3       30.17F
BOULDER MUN AP CLOUDY    72  27  18 SE5       30.18F
CENTENNIAL     CLOUDY    70  25  18 SW9       30.23F
BROOMFIELD     PTSUNNY   68  28  22 VRB5      30.22S
FORT COLLINS   CLOUDY    66  37  34 CALM      30.19S
LONGMONT       CLOUDY    64  41  42 CALM      30.18F
$$

COZ041-046-047-076>085-087-088-241800-
...PIKES PEAK/PALMER DIVIDE AND SOUTHERN FOOTHILLS...

CITY           SKY/WX    TMP DP  RH WIND       PRES   REMARKS
COLO. SPRINGS  PTSUNNY   73  20  13 SW8       30.28R
A. F. ACADEMY  PTSUNNY   73  12   9 SE7       30.28S
ELLICOTT       NOT AVBL
FALCON         PTSUNNY   73  15  11 W6        30.31F
FORT CARSON    MOSUNNY   75  22  13 S7        30.24F
LIMON          MOSUNNY   76  23  14 W7        30.21S
MONUMENT HILL  PTSUNNY   70  18  13 W3        30.31R
TRINIDAD       SUNNY     70  32  24 W6        30.26S
$$

COZ042>045-048>051-090-091-241800-
...NORTHEAST COLORADO...

CITY           SKY/WX    TMP DP  RH WIND       PRES   REMARKS
GREELEY ARPT   CLOUDY    59  39  47 W8        30.16F
AKRON          CLOUDY    67  33  28 W13       30.16R
BURLINGTON     MOSUNNY   79  33  19 NW9       30.14S
WRAY           PTSUNNY   82  30  15 W8        30.10S
STERLING       CLOUDY    68  43  40 SW8       30.11S
HOLYOKE        PTSUNNY   79  34  19 W9        30.09S
FORT MORGAN    CLOUDY    64  37  36 W8        30.16S
$$

COZ086-089-092>099-241800-
...SOUTHEAST COLORADO...

CITY           SKY/WX    TMP DP  RH WIND       PRES   REMARKS
PUEBLO         MOSUNNY   75  28  17 W9        30.18F
LA JUNTA       SUNNY     74  33  22 SW12      30.16F
LAMAR          SUNNY     72  38  29 W8        30.13F
SPRINGFIELD      N/A     80  33  18 CALM      30.17S
$$



USA.gov is the U.S. government's official web portal to all federal, state and local government web resources and services.